Regional Weather Roundup
Issued by NWS Green Bay, WI

Home | Current Version | Previous Version | Text Only | Print | Product List | Glossary On
Versions: 1 2 3 4 5 6 7 8 9 10 11 12 13 14 15 16 17 18 19 20 21 22 23 24 25 26 27 28 29 30 31 32 33 34 35 36 37 38 39 40 41 42 43 44 45 46 47 48 49 50
000
ASUS43 KGRB 130611
RWRGRB

NORTH-CENTRAL AND NORTHEAST WISCONSIN REGIONAL WEATHER ROUNDUP
NATIONAL WEATHER SERVICE GREEN BAY WI
1200 AM CST WED DEC 13 2017

WIZ005-009-010>012-018-019-130700-
NORTH CENTRAL WISCONSIN

CITY           SKY/WX    TMP DP  RH WIND       PRES   REMARKS
IRONWOOD       FLURRIES  11   6  81 SE7       29.68F WCI   0
MANITOWISH WTR FLURRIES  10   7  90 SE7       29.66F WCI  -2
ARBOR VITAE    FLURRIES  11   8  85 S6        29.67F WCI   2
EAGLE RIVER    FLURRIES  10   4  77 SE5       29.69F WCI   2
LAND O LAKES   LGT SNOW  10   4  80 S3        29.71F
RHINELANDER    FLURRIES  10   7  87 S3        29.69F
PHILLIPS       CLOUDY    11   8  87 SE8       29.66F WCI  -1
ANTIGO         FLURRIES  10   6  84 S6        29.73F WCI   0
TOMAHAWK       LGT SNOW  10   7  85 CALM      29.70F
MERRILL        FLURRIES  12   8  83 SE6       29.73F WCI   2
$$

WIZ013-073-130700-
NORTHEAST WISCONSIN

CITY           SKY/WX    TMP DP  RH WIND       PRES   REMARKS
IRON MOUNTAIN  CLOUDY    11   4  73 CALM      29.76F
MARINETTE      CLOUDY    11   6  81 CALM      29.85F
OCONTO         CLOUDY    13   8  81 CALM      29.84F
$$

WIZ017-030-035>037-045-130700-
CENTRAL WISCONSIN

CITY           SKY/WX    TMP DP  RH WIND       PRES   REMARKS
MEDFORD        CLOUDY    11   9  92 SE5       29.68F WCI   3
WAUSAU         FLURRIES  12   7  80 SE8       29.72F WCI   0
MOSINEE        CLOUDY    12  10  92 SE7       29.74F WCI   2
MARSHFIELD     CLOUDY    14  11  87 SE8       29.70F WCI   3
WISC RAPIDS    CLOUDY    15  10  80 SE8       29.76F WCI   4
STEVENS POINT  CLOUDY    12   7  78 SE6       29.76F WCI   3
WAUPACA        FLURRIES  17  10  73 SE5       29.81F
SHAWANO        CLOUDY    17   2  53 SW6       29.82F WCI   8
CLINTONVILLE   LGT SNOW  14   9  79 S3        29.81F
WAUTOMA        FLURRIES  15   9  76 SE7       29.81F WCI   5
$$

WIZ038-039-048-051-130700-
FOX VALLEY

CITY           SKY/WX    TMP DP  RH WIND       PRES   REMARKS
NWS GREEN BAY  CLOUDY    16   3  56 SW5       29.84F WCI   9
APPLETON       LGT SNOW  14   9  79 S3        29.81F
OSHKOSH        LGT SNOW  15  10  80 S5        29.83F WCI   8
FOND DU LAC    LGT SNOW  17   6  62 S5        29.84F WCI  10
$$

WIZ022-050-052-130700-
EAST CENTRAL WISCONSIN

CITY           SKY/WX    TMP DP  RH WIND       PRES   REMARKS
EPHRAIM        FAIR      13   4  65 CALM      29.81F
WASHINGTON ISL CLOUDY    15   6  66 NW3       29.82F
STURGEON BAY   CLOUDY    14   7  73 SW5       29.83F WCI   6
MANITOWOC      CLOUDY    15   4  61 W5        29.86F WCI   8
SHEBOYGAN      CLOUDY    16   6  65 SW5       29.86F WCI   9
$$

LMZ563-521-522-541>543-130700-
LAKESHORE

STATION/POSITION TIME  TEMP    WIND        PRES    VSBY  WAVE
                       AIR SEA DIR/SP/G                  HT/PER
                 (UTC) (F)     (DEG/KT/KT) (MB)    (MI)  (FT/S)
SHEBOYGAN LKSHOR 0600   17     260/  5/  8 1012.3F
KEWAUNEE LKSHORE 0548          260/  4/  5 1010.2F
NORTHPORT PIER   0540   16        CALM     1010.5F
MENOMINEE LKSHOR 0548          220/  4/  5 1010.2F
$$




USA.gov is the U.S. government's official web portal to all federal, state and local government web resources and services.